Location: Street
(51.1247°N, 2.7429°W)
Time: 06:40:51
(UTC+01:00)

CAS-6 - Pass Details

Date: 31 March 2023
Orbit: 610 x 632 km, 97.9° (Epoch: 29 May)

Event Time Altitude Azimuth Distance (km) Brightness Sun altitude
Exits shadow 23:56:47 27° 312° (NW) 1,194 ? -32.1°
Drops below altitude 10° 23:59:09 10° 333° (NNW) 2,008 ? -32.2°
Sets 00:01:28 0° 341° (NNW) 2,924 ? -32.3°
